False Pass, AK

11:54 AM HST on November 21, 2017 (GMT -1000)
False Pass

Weather History for PAKF - July, 2013

Change the Weather History Date:

Friday, July 19, 2013

  Actual Average (PACD) Record (PACD)
Temperature  
Mean Temperature 62 °F -  
Max Temperature 54 °F 55 °F 69 °F (1986)
Min Temperature 50 °F 46 °F 36 °F (1973)
Degree Days  
Heating Degree Days 4    
Growing Degree Days 12 (Base 50)    
Moisture  
Dew Point 54 °F    
Average Humidity 87    
Maximum Humidity 100    
Minimum Humidity 61    
Precipitation  
Precipitation 0.00 in - - ()
Sea Level Pressure  
Sea Level Pressure 30.62 in    
Wind  
Wind Speed 12 mph (East)    
Max Wind Speed 23 mph    
Max Gust Speed 32 mph    
Visibility 10 miles    
Events      
Averages and records for this station are not official NWS values.
T = Trace of Precipitation, MM = Missing Value Source: NWS Daily Summary

Daily Weather History Graph

Daily Weather History Graph

Search for Another Location

Airport or City:

Trip Planner

Search our weather history database for the weather conditions in past years. The results will help you decide how hot, cold, wet, or windy it might be!

Date:

Astronomy

Jul. 19, 2013 Rise Set
Actual Time 5:42 AM HDT 10:16 PM HDT
Civil Twilight 4:51 AM HDT 11:06 PM HDT
Nautical Twilight 3:29 AM HDT 12:27 AM HDT
Astronomical Twilight Sun does not rise Sun does not rise
Moon 7:30 PM HDT (7/19) 2:38 AM HDT (7/19)
Length of Visible Light 18h 15m
Length of Day
16h 34m
Waxing Gibbous, 88% of the Moon is Illuminated
Jul 19
Waxing Gibbous
Jul 22
Full
Jul 29
Last Quarter
Aug 6
New
Aug 14
First Quarter

Hourly Weather History & Observations

Time (HDT) Temp. Dew Point Humidity Pressure Visibility Wind Dir Wind Speed Gust Speed Precip Events Conditions
12:01 AM 54.0 °F 52.0 °F 93% 30.71 in 10.0 mi East 16.1 mph 21.9 mph N/A   Partly Cloudy
12:15 AM 53.6 °F 51.8 °F 94% 30.42 in 10.0 mi East 16.1 mph 23.0 mph N/A   Mostly Cloudy
12:46 AM 53.6 °F 51.8 °F 94% 30.43 in 10.0 mi East 12.7 mph - N/A   Mostly Cloudy
12:53 AM 53.6 °F 51.8 °F 94% 30.43 in 10.0 mi SE 6.9 mph - N/A   Scattered Clouds
1:01 AM 53.1 °F 52.0 °F 96% 30.71 in 10.0 mi ESE 9.2 mph - N/A   Scattered Clouds
1:39 AM 51.8 °F 51.8 °F 100% 30.43 in 10.0 mi West 3.5 mph - N/A   Mostly Cloudy
2:01 AM 52.0 °F 51.1 °F 97% 30.72 in 10.0 mi North 5.8 mph - N/A   Overcast
2:40 AM 53.6 °F 51.8 °F 94% 30.44 in 10.0 mi North 5.8 mph - N/A   Scattered Clouds
3:01 AM 52.0 °F 51.1 °F 97% 30.72 in 10.0 mi East 13.8 mph - N/A   Clear
3:21 AM 51.8 °F 51.8 °F 100% 30.43 in 10.0 mi ENE 13.8 mph 20.7 mph N/A   Partly Cloudy
4:01 AM 52.0 °F 51.1 °F 97% 30.72 in 10.0 mi East 15.0 mph 21.9 mph N/A   Partly Cloudy
4:23 AM 53.6 °F 51.8 °F 94% 30.43 in 10.0 mi Variable 3.5 mph - N/A   Mostly Cloudy
4:59 AM 50.0 °F 48.2 °F 94% 30.44 in 10.0 mi Variable 3.5 mph - N/A   Scattered Clouds
5:01 AM 50.0 °F 48.9 °F 96% 30.72 in 10.0 mi Variable 3.5 mph - N/A   Scattered Clouds
5:09 AM 51.8 °F 51.8 °F 100% 30.43 in 10.0 mi East 10.4 mph - N/A   Mostly Cloudy
6:01 AM 55.0 °F 53.1 °F 93% 30.72 in 10.0 mi East 8.1 mph - N/A   Mostly Cloudy
6:57 AM 53.6 °F 53.6 °F 100% 30.43 in 10.0 mi East 20.7 mph 32.2 mph N/A   Overcast
7:01 AM 54.0 °F 53.1 °F 97% 30.72 in 10.0 mi East 21.9 mph 32.2 mph N/A   Overcast
7:58 AM 55.4 °F 53.6 °F 94% 30.45 in 10.0 mi East 20.7 mph 29.9 mph N/A   Scattered Clouds
8:01 AM 55.9 °F 54.0 °F 93% 30.73 in 10.0 mi ESE 21.9 mph 29.9 mph N/A   Partly Cloudy
9:01 AM 57.9 °F 55.0 °F 90% 30.73 in 10.0 mi East 23.0 mph 31.1 mph N/A   Clear
10:01 AM 60.1 °F 55.0 °F 83% 30.74 in 10.0 mi ESE 18.4 mph 31.1 mph N/A   Clear
11:01 AM 66.0 °F 57.0 °F 73% 30.75 in 10.0 mi ESE 20.7 mph 31.1 mph N/A   Clear
12:01 PM 66.0 °F 59.0 °F 78% 30.75 in 10.0 mi ESE 13.8 mph 25.3 mph N/A   Clear
1:01 PM 68.0 °F 59.0 °F 73% 30.75 in 10.0 mi NW 5.8 mph - N/A   Clear
1:53 PM 69.8 °F 59.0 °F 68% 30.46 in 9.0 mi North - - N/A   Mostly Cloudy
2:01 PM 71.6 °F 60.8 °F 69% 30.46 in 10.0 mi SE 6.9 mph - N/A   Scattered Clouds
2:45 PM 73.4 °F 59.0 °F 61% 30.46 in 10.0 mi North - - N/A   Mostly Cloudy
3:01 PM 69.1 °F 57.0 °F 65% 30.75 in 10.0 mi North - - N/A   Overcast
3:19 PM 62.6 °F 55.4 °F 77% 30.47 in 10.0 mi NW 11.5 mph - N/A   Overcast
4:01 PM 63.0 °F 55.9 °F 78% 30.76 in 10.0 mi NNW 10.4 mph - N/A   Overcast
5:01 PM 57.9 °F 54.0 °F 87% 30.76 in 10.0 mi ESE 9.2 mph 21.9 mph N/A   Overcast
6:01 PM 62.1 °F 55.9 °F 80% 30.75 in 10.0 mi NNW 4.6 mph - N/A   Overcast
7:01 PM 66.9 °F 55.9 °F 68% 30.74 in 10.0 mi North - - N/A   Overcast
8:01 PM 64.0 °F 55.0 °F 73% 30.75 in 10.0 mi Calm Calm - N/A   Overcast
9:01 PM 57.0 °F 53.1 °F 87% 30.76 in 10.0 mi East 16.1 mph 21.9 mph N/A   Overcast
10:01 PM 57.0 °F 54.0 °F 89% 30.77 in 10.0 mi North - - N/A   Overcast
11:01 PM 55.9 °F 54.0 °F 93% 30.78 in 10.0 mi East 13.8 mph 17.3 mph N/A   Clear
11:43 PM 53.6 °F 53.6 °F 100% 30.50 in 10.0 mi East 9.2 mph 19.6 mph N/A   Partly Cloudy